| time (UTC) | temp F | wind direction | speed MPH | gust MPH | rain 1hr in | rain 24hr in | rain mn in | humidity % | barometer mb |
| 20260504081049 | 47 | 338 | 2.0 | 3.0 | 0.00 | 0.00 | 0.00 | 38 | 1018.0 |
| 20260504045049 | 47 | 360 | 0.0 | 0.0 | 0.00 | 0.00 | 0.00 | 38 | 1018.7 |
| 20260504044047 | 47 | 360 | 0.0 | 0.0 | 0.00 | 0.00 | 0.00 | 38 | 1018.7 |
| 20260504043049 | 47 | 360 | 0.0 | 0.0 | 0.00 | 0.00 | 0.00 | 38 | 1018.7 |
| 20260504042046 | 47 | 360 | 0.0 | 0.0 | 0.00 | 0.00 | 0.00 | 38 | 1018.7 |
| 20260504041047 | 48 | 360 | 2.0 | 2.0 | 0.00 | 0.00 | 0.00 | 37 | 1018.7 |
| 20260504040047 | 47 | 23 | 1.0 | 2.0 | 0.00 | 0.00 | 0.00 | 37 | 1018.7 |
| 20260504035049 | 47 | 338 | 2.0 | 3.0 | 0.00 | 0.00 | 0.00 | 37 | 1018.7 |
| 20260504034046 | 47 | 360 | 2.0 | 3.0 | 0.00 | 0.00 | 0.00 | 37 | 1019.0 |
| 20260504033047 | 47 | 360 | 2.0 | 3.0 | 0.00 | 0.00 | 0.00 | 37 | 1018.7 |
| 20260504032049 | 48 | 360 | 2.0 | 2.0 | 0.00 | 0.00 | 0.00 | 37 | 1018.7 |
| 20260504031047 | 48 | 360 | 2.0 | 2.0 | 0.00 | 0.00 | 0.00 | 37 | 1018.7 |
| 20260504030049 | 48 | 360 | 2.0 | 2.0 | 0.00 | 0.00 | 0.00 | 37 | 1018.7 |
| 20260504025047 | 48 | 360 | 0.0 | 0.0 | 0.00 | 0.00 | 0.00 | 36 | 1018.3 |
| 20260504024047 | 48 | 23 | 0.0 | 0.0 | 0.00 | 0.00 | 0.00 | 36 | 1018.7 |
| 20260504023047 | 48 | 360 | 0.0 | 0.0 | 0.00 | 0.00 | 0.00 | 36 | 1019.0 |
| 20260504022047 | 48 | 360 | 0.0 | 0.0 | 0.00 | 0.00 | 0.00 | 36 | 1018.7 |
| 20260504021047 | 47 | 23 | 0.0 | 0.0 | 0.00 | 0.00 | 0.00 | 36 | 1018.7 |
| 20260504020047 | 47 | 23 | 0.0 | 0.0 | 0.00 | 0.00 | 0.00 | 36 | 1018.7 |
| 20260504015047 | 47 | 23 | 0.0 | 0.0 | 0.00 | 0.00 | 0.00 | 36 | 1018.3 |
| 20260504014048 | 47 | 45 | 0.0 | 0.0 | 0.00 | 0.00 | 0.00 | 36 | 1018.3 |
| 20260504013047 | 47 | 23 | 0.0 | 0.0 | 0.00 | 0.00 | 0.00 | 35 | 1018.3 |
| 20260504012047 | 47 | 360 | 0.0 | 0.0 | 0.00 | 0.00 | 0.00 | 36 | 1018.0 |
| 20260504011047 | 47 | 360 | 0.0 | 0.0 | 0.00 | 0.00 | 0.00 | 35 | 1018.0 |
| 20260504010048 | 47 | 360 | 1.0 | 2.0 | 0.00 | 0.00 | 0.00 | 35 | 1018.0 |
| 20260504005047 | 47 | 360 | 1.0 | 2.0 | 0.00 | 0.00 | 0.00 | 35 | 1018.0 |
| 20260504004047 | 47 | 360 | 2.0 | 2.0 | 0.00 | 0.00 | 0.00 | 35 | 1018.0 |
| 20260504003047 | 47 | 360 | 1.0 | 2.0 | 0.00 | 0.00 | 0.00 | 35 | 1018.0 |
| 20260504002047 | 48 | 23 | 1.0 | 2.0 | 0.00 | 0.00 | 0.00 | 35 | 1018.0 |
| 20260504001046 | 48 | 360 | 2.0 | 2.0 | 0.00 | 0.00 | 0.00 | 35 | 1017.6 |
| 20260504000049 | 49 | 360 | 1.0 | 2.0 | 0.00 | 0.00 | 0.00 | 35 | 1018.0 |
| 20260503235047 | 50 | 360 | 2.0 | 3.0 | 0.00 | 0.00 | 0.00 | 32 | 1017.6 |
| 20260503234050 | 51 | 315 | 2.0 | 2.0 | 0.00 | 0.00 | 0.00 | 33 | 1018.0 |
| 20260503233049 | 51 | 360 | 1.0 | 2.0 | 0.00 | 0.00 | 0.00 | 33 | 1017.6 |
| 20260503232046 | 52 | 338 | 2.0 | 2.0 | 0.00 | 0.00 | 0.00 | 32 | 1017.6 |
| 20260503231049 | 53 | 338 | 2.0 | 3.0 | 0.00 | 0.00 | 0.00 | 31 | 1017.6 |
| 20260503230047 | 53 | 338 | 2.0 | 2.0 | 0.00 | 0.00 | 0.00 | 30 | 1017.6 |
| 20260503225047 | 54 | 338 | 3.0 | 3.0 | 0.00 | 0.00 | 0.00 | 29 | 1017.6 |
| 20260503224047 | 54 | 338 | 3.0 | 3.0 | 0.00 | 0.00 | 0.00 | 29 | 1017.6 |
| 20260503223047 | 53 | 360 | 2.0 | 2.0 | 0.00 | 0.00 | 0.00 | 30 | 1017.3 |
| 20260503222047 | 54 | 23 | 3.0 | 4.0 | 0.00 | 0.00 | 0.00 | 28 | 1017.6 |
| 20260503221047 | 55 | 360 | 0.0 | 1.0 | 0.00 | 0.00 | 0.00 | 29 | 1017.6 |
| 20260503220049 | 54 | 315 | 3.0 | 4.0 | 0.00 | 0.00 | 0.00 | 28 | 1017.6 |
| 20260503215047 | 54 | 360 | 4.0 | 5.0 | 0.00 | 0.00 | 0.00 | 28 | 1017.6 |
| 20260503214046 | 55 | 338 | 4.0 | 6.0 | 0.00 | 0.00 | 0.00 | 26 | 1017.6 |
| 20260503213047 | 55 | 360 | 5.0 | 7.0 | 0.00 | 0.00 | 0.00 | 27 | 1017.6 |
| 20260503212047 | 56 | 360 | 4.0 | 5.0 | 0.00 | 0.00 | 0.00 | 27 | 1017.6 |
| 20260503211047 | 55 | 338 | 3.0 | 4.0 | 0.00 | 0.00 | 0.00 | 28 | 1017.6 |
| 20260503205047 | 56 | 315 | 3.0 | 4.0 | 0.00 | 0.00 | 0.00 | 29 | 1017.6 |
| 20260503204047 | 55 | 315 | 4.0 | 5.0 | 0.00 | 0.00 | 0.00 | 31 | 1017.6 |
| 20260503203049 | 56 | 315 | 3.0 | 4.0 | 0.00 | 0.00 | 0.00 | 27 | 1017.6 |
| 20260503202047 | 55 | 360 | 5.0 | 5.0 | 0.00 | 0.00 | 0.00 | 29 | 1017.6 |
| 20260503201047 | 57 | 315 | 5.0 | 7.0 | 0.00 | 0.00 | 0.00 | 27 | 1018.0 |
| 20260503200047 | 55 | 360 | 3.0 | 5.0 | 0.00 | 0.00 | 0.00 | 28 | 1018.0 |
| 20260503195049 | 55 | 23 | 4.0 | 5.0 | 0.00 | 0.00 | 0.00 | 30 | 1018.3 |
| 20260503194047 | 54 | 315 | 4.0 | 6.0 | 0.00 | 0.00 | 0.00 | 31 | 1018.3 |
| 20260503193047 | 54 | 315 | 4.0 | 5.0 | 0.00 | 0.00 | 0.00 | 31 | 1018.3 |
| 20260503192047 | 53 | 315 | 6.0 | 7.0 | 0.00 | 0.00 | 0.00 | 31 | 1018.3 |
| 20260503191047 | 53 | 360 | 4.0 | 5.0 | 0.00 | 0.00 | 0.00 | 30 | 1018.3 |
| 20260503190048 | 54 | 338 | 3.0 | 5.0 | 0.00 | 0.00 | 0.00 | 31 | 1018.7 |
| 20260503185047 | 54 | 315 | 3.0 | 4.0 | 0.00 | 0.00 | 0.00 | 34 | 1018.7 |
| 20260503184047 | 55 | 338 | 3.0 | 4.0 | 0.00 | 0.00 | 0.00 | 32 | 1019.0 |
| 20260503183047 | 50 | 338 | 6.0 | 7.0 | 0.00 | 0.00 | 0.00 | 34 | 1018.7 |
| 20260503182047 | 53 | 338 | 3.0 | 5.0 | 0.00 | 0.00 | 0.00 | 35 | 1019.0 |
| 20260503181049 | 52 | 293 | 4.0 | 5.0 | 0.00 | 0.00 | 0.00 | 36 | 1018.7 |
| 20260503180047 | 51 | 338 | 4.0 | 5.0 | 0.00 | 0.00 | 0.00 | 35 | 1019.0 |
| 20260503175047 | 52 | 315 | 5.0 | 5.0 | 0.00 | 0.00 | 0.00 | 35 | 1018.7 |
| 20260503174047 | 51 | 293 | 5.0 | 6.0 | 0.00 | 0.00 | 0.00 | 35 | 1019.0 |
| 20260503173047 | 49 | 360 | 5.0 | 6.0 | 0.00 | 0.00 | 0.00 | 37 | 1019.0 |
| 20260503172049 | 50 | 315 | 4.0 | 5.0 | 0.00 | 0.00 | 0.00 | 36 | 1019.0 |
| 20260503171047 | 47 | 293 | 6.0 | 8.0 | 0.00 | 0.00 | 0.00 | 38 | 1019.0 |
| 20260503131049 | 37 | 293 | 5.0 | 5.0 | 0.00 | 0.00 | 0.00 | 60 | 1019.3 |